Location: Borotín
(49.5055°N, 14.6142°E)
Time: 11:56:57
(UTC+00:00)

Cosmos 1300 - Pass Details

Date: 27 May 2022
Orbit: 506 x 508 km, 82.5° (Epoch: 26 June)

Event Time Altitude Azimuth Distance (km) Brightness Sun altitude
Rises 00:38:02 0° 339° (NNW) 2,624 7.0 -15.9°
Reaches altitude 10° 00:40:25 10° 326° (NW) 1,732 5.8 -15.7°
Maximum altitude 00:43:33 25° 271° (W) 1,059 4.0 -15.5°
Enters shadow 00:44:28 23° 247° (WSW) 1,131 4.0 -15.4°
